Погода Ртищево

Погода Ртищево : погода сейчас, прогноз погоды и архив. Всё, что Вы хотите узнать о погоде Ртищево!

Хотите узнать прогноз погоды Ртищево? Тогда Вам сюда: Погода Ртищево

Поиск расширенной информации на нашем сайте:

Другие новости

Новости СМИ2

Главная страница сайта

Новости сайта

03.07.2017

Напоминаем, что на нашем специализированном сайте Метеоцентр.Азия вы можете получить высокодетализированные автоматические прогнозы погоды по пунктам России, СНГ и мира в авиационном формате (включающие направление и скорость ветра, видимость, явления погоды, количество и форму облачности, нижнюю и верхнюю границу облачности).


Погода Ртищево - сегодня

Время (UTC), дата Ветер
(°,м/с) 
Видим.   Явления Облачность Т
(°С)
Тd
(°С)
f(%) Тe
(°С)
Pmin
(гПа)
dP
(гПа)
Po
(мм)
O2
(г/м3)
Тmin Tmax R s Состояние
почвы
21 16.10.18 270 (З) 4000 м    ясно 
+7.9 +6.8 93 +9  1025  -0.7  749  292           
00 17.10.18 260 (З) 4000 м    ясно 
+6.2 +5.5 95 +7  1024.6  -0.5  749  294           
06 17.10.18 290 (З) 10 км    ясно 
+9.3 +6.6 83 +10  1024.1  0.2  749  291           
09 17.10.18 280 (З) 10 км    ясно 
+16.9 +7.9 55 +18  1023.3  -0.2  749  283           
12 17.10.18 320 (СЗ) 10 км    ясно 
+18.6 +5.1 41 +19  1022.7  -0.2  749  282           
15 17.10.18 310 (СЗ) 4000 м    ясно 
+13.6 +6.1 60 +15  1023.4  0.3  749  286    +18.9       
18 17.10.18 340 (С) 4000 м    ясно 
+11.8 +6.1 68 +12  1024.7  749  288           
21 17.10.18 030 (СВ) 4000 м    ясно 
+8.2 +5.8 85 +8  1025.6  0.6  750  292           
00 18.10.18 030 (СВ) 4000 м    ясно 
+6.2 +5.2 93 +7  1026.2  0.4  750  295           
06 18.10.18 140 (ЮВ) 10 км    ясно 
+9.4 +7.2 86 +10  1026.8  0.5  751  291  +3.5         
09 18.10.18 200 (Ю) 10 км    ясно 
+14.9 +7.9 63 +16  1025.8  -0.4  751  285           
12 18.10.18 210 (ЮЗ) 10 км    ясно 
+16.9 +7.7 55 +18  1024.3  -1.4  750  283           
15 18.10.18 200 (Ю) 4000 м    ясно 
+8.4 +7.1 92 +9  1024.2  -0.8  749  292    +17.2       
18 18.10.18 200 (Ю) 4000 м    ясно 
+5.6 +5.5 99 +6  1024  -0.4  749  295           
21 18.10.18 220 (ЮЗ) 4000 м    ясно 
+6.9 +6.4 97 +7  1023.8  0.1  749  293           
00 19.10.18 220 (ЮЗ) 4000 м    ясно 
+5.6 +5.3 98 +6  1023.5  -0.5  748  295           
06 19.10.18 220 (ЮЗ) 10 км    6/0 средняя 
[Ac trans]
+9.2 +7.1 87 +9  1022.4  0.2  748  290  +4.3         
09 19.10.18 220 (ЮЗ) 10 км    3/0 средняя 
[Ac trans]
+17.2 +8.6 57 +18  1020.8  -0.9  747  282           
12 19.10.18 220 (ЮЗ) 10 км    ясно 
+17.8 +7.6 51 +18  1019.2  -1.5  746  281           
15 19.10.18 200 (Ю) 4000 м    ясно 
+11.7 +7.3 74 +12  1018.7  -1  745  287    +18.4       
18 19.10.18 210 (ЮЗ) 4000 м    ясно 
+9.5 +4.5 71 +10  1018.3  -0.5  745  289           
21 19.10.18 210 (ЮЗ) 4000 м    3/0 верхняя 
[Ci fib]
+7.6 +3.4 75 +7  1017.8  -0.7  744  291           
00 20.10.18 210 (ЮЗ) 4000 м    ясно 
+6.2 +3.1 81 +6  1017.2  -0.8  744  292           
03 20.10.18 220 (ЮЗ) 4000 м    4/0 верхняя 
[Ci fib]
+4.5 +2.9 89 +4  1016.4  -0.9  743  294  +4.4        сухая 
06 20.10.18 220 (ЮЗ) 10 км    8/0 верхняя 
[Cs]
+7.4 +4.3 81 +7  1016.4  0.3  743  291  +4.3         
Время (UTC), дата Ветер
(°,м/с) 
Видим.   Явления Облачность Т
(°С)
Тd
(°С)
f(%) Тe
(°С)
Pmin
(гПа)
dP
(гПа)
Po
(мм)
O2
(г/м3)
Тmin Tmax R s Состояние
почвы

Для получения пояснительной информации подведите курсор к названию столбца.

ПОГОДА Ртищево - архив

Всё, что Вы хотите узнать о погоде Ртищево - удобно и подробно!

Выберите нужную дату (начиная с 1 января 2015* года) и нажмите кнопку "Найти".
Будут отображены архивные сводки погоды по пункту Ртищево, начиная с указанной даты.


Отображать данные в формате CSV (для использования в таблицах Excel)


Внимание! Наш архив погоды предназначен исключительно для личного некоммерческого использования в познавательных целях. Если Вам необходимы официальные справки о состоянии погоды (для производственных, юридических, коммерческих и т.п. целей), обращайтесь в органы Росгидромета.

*Примечание: данная дата относится к архиву по метеостанциям СССР (Россия, СНГ, Балтия).
Архив по метеостанциям Зарубежной Европы и Азии (кроме Китая) хранится 10 дней, по другим регионам земного шара (Китай, Африка, Америка, Австралия, Океания) - 1 день.

Ртищево - район местоположения метеостанции


Название, широта, долгота, высота метеостанции:
Ртищево 52.2°ш. 43.8°д. 213 м над ур. моря [Российская Федерация]

Дополнительная информация

В oтличие oт бoльшинства пoгoдных сайтoв мы публикуем пoдрoбную метеoинфoрмацию в детальнoм прoфессиoнальнoм фoрмате.

Характеристики температуры и влажнoсти вoздуха измеряются на высoте 2 м в тени вдали oт зданий и деревьев.
Скoрoсть ветра измеряется на высoте 10 м (на урoвне рoста челoвека скoрoсть ветра ниже в 1.5-2 раза). Если метеoстанция нахoдится в гoрoде или в лесу, тo скoрoсть ветра занижена на 2-4 м/с пo сравнению с oткрытым местoм. Скoрoсть ветра над акватoриями крупных рек и oзёр, а также на вершинах хoлмoв на 2-5 м/с выше, чем в oбычных услoвиях.
Атмoсфернoе давление в разных тoчках местнoсти мoжет значительнo oтличаться oт давления на метеoстанции, в зависимoсти oт услoвий рельефа (при пoдъёме на 10 м давление пoнижается примернo на 1 мм рт.ст.).